User: anonymous   Login
Location: Cabeza de los Veneras
(40.2000°N, 5.2000°W)
Time: 19:25:11
(UTC+00:00)
Language:

SJ 16-02 - Orbit

View from above orbital plane
View from above orbital plane
View from above satellite
View from above satellite

Ground track
Ground track

The orbit data is extracted from the following two-line orbital elements,

1 41634U 16043A   24165.62641815  .00001997  00000-0  21339-3 0  9990
2 41634  75.0011 223.7044 0008006  13.0776 347.0617 14.89311581431764
Epoch (UTC): 13 June 2024 15:02:02
Eccentricity: 0.0008006
inclination: 75.0011°
perigee height: 594 km
apogee height: 605 km
right ascension of ascending node: 223.7044°
argument of perigee: 13.0776°
revolutions per day: 14.89311581
mean anomaly at epoch: 347.0617°
orbit number at epoch: 43176

The dashed part of the orbit path shows where the satellite is in the earth's shadow,  

DLR